Deer Park, WA
on Saturday, January 5, 2013

Saturday
Previous Day Next Day
Daily Summary
 ActualAverageRecord
Temperature
Mean Temperature °F 26°F  
Max Temperature 33°F 32°F 47°F (2012)
Min Temperature 25°F 20°F -27°F (2004)
Degree Days
Heating Degree Days 36 39  
Month to date heating degree days 234 198  
Since 1 July heating degree days 3027 3425  
Cooling Degree Days 0 0  
Month to date cooling degree days 0 0  
Year to date cooling degree days 0 0  
Moisture
Dew Point 24°F   
Average Humidity 85    
Maximum Humidity 100    
Minimum Humidity 69    
Precipitation
Precipitation 0.01 in 0.10 in 0.33 in (2007)
Month to date precipitation 0.01 0.53  
Year to date precipitation 0.01 0.53  
Wind
Wind Speed 7 mph   
Max Wind Speed 16 mph   
Max Gust Speed 20 mph   
Visibility 8 miles   
Events Snow   

Key: T is trace of precipitation, MM is missing value
Source: NWS Daily Summary
Time(PST)TemperatureDew PointHumidity Pressure Visibility Wind DirectionWind SpeedGust SpeedPrecipitationEvents Conditions
12:53 AM 27.0°F 23.0°F 85% 30.43 in 10.0 miles NNE 8.1 mph - N/A   Overcast
1:53 AM 28.0°F 24.1°F 85% 30.43 in 10.0 miles NNE 5.8 mph - N/A   Overcast
2:53 AM 28.0°F 24.1°F 85% 30.43 in 6.0 miles NE 6.9 mph - 0.00 in Snow Light Snow
3:53 AM 28.0°F 24.1°F 85% 30.43 in 10.0 miles NNE 4.6 mph - 0.00 in   Overcast
4:53 AM 28.0°F 24.1°F 85% 30.41 in 10.0 miles NNE 9.2 mph - 0.00 in   Overcast
5:53 AM 28.0°F 24.1°F 85% 30.41 in 6.0 miles NNE 10.4 mph - 0.00 in Snow Light Snow
6:53 AM 27.0°F 23.0°F 85% 30.40 in 10.0 miles NNE 8.1 mph - 0.00 in   Mostly Cloudy
7:53 AM 28.9°F 24.1°F 82% 30.39 in 10.0 miles NNE 12.7 mph - N/A   Overcast
8:53 AM 30.0°F 24.1°F 79% 30.38 in 10.0 miles NNE 12.7 mph - N/A   Overcast
9:53 AM 30.9°F 24.1°F 76% 30.37 in 10.0 miles NNE 13.8 mph - N/A   Clear
10:53 AM 32.0°F 25.0°F 75% 30.34 in 10.0 miles NNE 11.5 mph - N/A   Clear
11:53 AM 32.0°F 25.0°F 75% 30.32 in 10.0 miles NE 12.7 mph - N/A   Scattered Clouds
12:53 PM 33.1°F 25.0°F 72% 30.32 in 10.0 miles North 10.4 mph - N/A   Clear
1:53 PM 33.1°F 26.1°F 75% 30.30 in 10.0 miles NNE 6.9 mph - N/A   Scattered Clouds
2:53 PM 32.0°F 26.1°F 79% 30.30 in 10.0 miles NNE 9.2 mph - N/A   Mostly Cloudy
3:53 PM 30.9°F 25.0°F 79% 30.29 in 10.0 miles NE 6.9 mph - N/A   Scattered Clouds
4:27 PM 30.2°F 24.8°F 80% 30.22 in 10.0 miles North 3.5 mph - N/A   Mostly Cloudy
4:53 PM 30.0°F 25.0°F 82% 30.29 in 10.0 miles NE 3.5 mph - N/A   Overcast
5:26 PM 28.4°F 24.8°F 86% 30.20 in 10.0 miles NE 4.6 mph - N/A   Scattered Clouds
5:53 PM 28.9°F 25.0°F 85% 30.27 in 10.0 miles NE 3.5 mph - N/A   Partly Cloudy
6:53 PM 27.0°F 24.1°F 89% 30.27 in 10.0 miles Calm Calm - N/A   Mostly Cloudy
7:26 PM 26.6°F 24.8°F 93% 30.18 in 10.0 miles Calm Calm - N/A   Overcast
7:53 PM 28.0°F 25.0°F 88% 30.25 in 10.0 miles Calm Calm - N/A   Overcast
8:34 PM 28.4°F 26.6°F 93% 30.19 in 7.0 miles Calm Calm - N/A   Overcast
8:53 PM 27.0°F 26.1°F 96% 30.26 in 10.0 miles South 3.5 mph - N/A   Overcast
9:53 PM 26.1°F 23.0°F 88% 30.26 in 2.0 miles SSE 4.6 mph - 0.00 in Snow Light Snow
9:59 PM 26.6°F 23.0°F 86% 30.18 in 1.8 miles SSE 5.8 mph - 0.00 in Snow Light Snow
10:22 PM 24.8°F 24.8°F 100% 30.18 in 1.5 miles SSE 5.8 mph - 0.00 in Snow Light Snow
10:53 PM 25.0°F 24.1°F 96% 30.25 in 1.5 miles South 4.6 mph - 0.00 in Snow Light Snow
11:24 PM 24.8°F 23.0°F 93% 30.16 in 1.2 miles South 5.8 mph - 0.01 in Snow Light Snow
11:46 PM 24.8°F 24.8°F 100% 30.16 in 1.5 miles SW 3.5 mph - 0.01 in Snow Light Snow
11:53 PM 25.0°F 24.1°F 96% 30.23 in 1.5 miles SW 3.5 mph - 0.01 in Snow Light Snow
Moon Phase
Jan. 05 Jan. 11 Jan. 18 Jan. 26 Feb. 03
Sunrise:07:38 AM (PST) Moon Rise:12:34 AM (PST)1/5
Sunset:04:12 PM (PST) Moon Set:11:17 AM (PST)1/5

Copyright © 2014 The Weather Underground, Inc.